Location: Newark
(42.9800°N, 13.1600°E)
Time: 21:56:55
(UTC+00:00)

Hubble Space Telescope - Visible Passes

Search period start: 18 November 2019 00:00
Search period end: 28 November 2019 00:00
Orbit: 536 x 540 km, 28.5° (Epoch: 17 November)

Date Brightness Start Highest point End Pass type
(mag) Time Alt. Az. Time Alt. Az. Time Alt. Az.
21 Nov 3.4 17:48:09 10° S 17:48:38 10° S 17:48:44 10° S visible
22 Nov 3.3 17:37:03 10° S 17:37:53 11° S 17:38:44 10° SSE visible
23 Nov 3.4 17:26:13 10° SSW 17:27:09 11° S 17:28:03 10° SSE visible
24 Nov 3.5 17:15:36 10° SSW 17:16:24 10° S 17:17:12 10° S visible
25 Nov 3.6 17:05:22 10° S 17:05:39 10° S 17:05:56 10° S visible
